Location: Valdosta
(30.8330°N, 83.2790°W)
Time: 11:12:47
(UTC-04:00)

Daily predictions for brighter satellites

Satellite Brightness Start Highest point End
(mag) Time Altitude Azimuth Time Altitude Azimuth Time Altitude Azimuth
Cosmos 1302 Rocket 4.2 20:23:29 10° S 20:28:29 50° ESE 20:33:30 10° NNE
Meteor 2-3 Rocket 3.9 20:28:07 10° N 20:33:43 53° E 20:39:19 10° SSE
FREGAT/IRIS 2.9 20:31:31 10° S 20:34:31 73° W 20:37:33 10° NNW
Cosmos 1980 Rocket 2.3 20:29:17 10° SSW 20:34:57 90° SSW 20:40:40 10° NNE
Cosmos 1315 Rocket 4.2 20:34:39 10° NNE 20:37:48 21° ENE 20:40:54 10° SE
SEDSat Delta rocket 3.6 20:39:08 10° WSW 20:44:06 58° SSE 20:49:51 10° E
OTV 4 0.4 20:43:57 10° WNW 20:46:48 68° NNE 20:49:08 14° ESE
CZ-2D R/B 3.9 20:43:59 10° SE 20:47:35 37° ENE 20:51:11 10° N
Cosmos 2227 Rocket 3.7 20:42:48 10° NW 20:47:58 37° WSW 20:53:06 10° S
SL-16 R/B 2.7 20:46:19 10° S 20:51:30 38° ESE 20:56:41 10° NE
Cosmos 1825 4.1 20:49:58 10° NE 20:51:35 12° ENE 20:52:20 12° E
FengYun 1-2 T 4.3 20:48:33 10° SSE 20:54:12 88° WSW 20:59:54 10° NNW
Nadezhda 4 Rocket 4.0 20:50:29 10° N 20:56:46 76° E 21:03:04 10° S
GPS 2-04 Rocket1 2.9 20:55:26 10° WNW 20:58:56 53° SSW 21:01:34 17° SE
Cosmos 1634 Rocket 4.1 20:52:57 10° SSE 20:59:02 55° E 21:05:11 10° NNE
Hubble Space Telescope 3.2 20:57:51 10° SW 20:59:57 14° SSW 21:02:02 10° S
Cosmos 1707 Rocket 3.5 20:56:54 10° S 21:01:21 78° E 21:05:46 10° N
Sakura Rocket 4.1 20:58:30 10° SSW 21:01:34 22° SSE 21:03:17 18° ESE
HJ-1C 4.3 20:59:07 10° S 21:02:28 52° W 21:05:51 10° NNW
USA 186 2.0 21:02:50 23° ESE 21:03:55 34° ENE 21:06:28 10° N
Cosmos 1092 Rocket 4.0 21:00:13 10° N 21:06:31 63° E 21:12:46 10° SSE
Helios 1B rocket 2.6 21:03:20 10° NNE 21:07:18 48° E 21:11:15 10° S
ALOS 3.4 21:02:53 10° S 21:07:19 44° W 21:11:47 10° NNW
Lacrosse 4 Rocket 3.4 21:05:01 10° NNE 21:07:33 15° ENE 21:08:46 14° ENE
Cosmos 1939 Rocket 4.3 21:08:25 19° E 21:09:35 22° ENE 21:12:42 10° NNE
ERBS 4.4 21:09:38 10° N 21:11:46 15° NE 21:12:44 14° ENE
Gblst 52 Del rocket 4.2 21:07:02 10° NW 21:12:49 72° NE 21:16:27 22° SE
Cosmos 1733 Rocket 4.5 21:10:24 10° NNE 21:13:41 20° ENE 21:14:14 19° E
Cosmos 1486 Rocket 4.0 21:10:14 10° N 21:15:25 62° ENE 21:19:20 18° SSE
Resurs 1-3 3.7 21:14:40 10° S 21:19:01 76° WSW 21:23:25 10° NNW
Cosmos 1992 Rocket 4.2 21:16:08 10° S 21:21:08 47° ESE 21:26:08 10° NNE
Cosmos 1869 Rocket 3.9 21:20:31 10° NNW 21:24:58 69° W 21:29:23 10° S
Cosmos 2227 4.2 21:20:01 10° NNW 21:25:43 67° ENE 21:29:15 23° SSE
Atlas Centaur 2 2.9 21:19:03 10° WSW 21:25:46 59° SSE 21:31:32 20° E
SAR-Lupe-1 4.5 21:26:08 37° ESE 21:26:50 42° ENE 21:30:14 10° N
Cosmos 1408 3.1 21:23:46 10° NNE 21:27:12 36° E 21:27:28 36° E
SL-8 R/B 4.0 21:26:51 10° WNW 21:31:36 59° SW 21:33:57 28° SSE
Cosmos 2242 Rocket 3.5 21:28:21 10° S 21:32:53 83° E 21:37:24 10° N
Helios 1A 2.9 21:36:33 29° SSE 21:38:38 87° ENE 21:42:54 10° NNW
CZ-4B DEB 4.4 21:39:11 47° SSE 21:40:07 89° E 21:43:41 10° N
Cosmos 2279 Rocket 3.9 21:34:05 10° S 21:40:16 70° E 21:46:28 10° N
Cosmos 1627 Rocket 4.4 21:34:28 10° N 21:40:41 78° E 21:45:01 20° S
Cosmos 2195 Rocket 4.4 21:38:06 10° N 21:44:14 86° E 21:48:44 19° S
Cosmos 1503 Rocket 4.0 21:41:37 10° N 21:46:47 60° ENE 21:48:10 45° SE
DELTA 2 R/B (1) 3.5 21:42:07 10° WNW 21:47:44 83° SSW 21:49:34 44° SE
CZ-3B DEB 2.8 21:48:16 10° WNW 21:50:08 15° WSW 21:50:21 15° WSW
Resurs 01 Rocket 3.6 21:46:30 10° SSW 21:50:13 26° W 21:53:58 10° NW
Cosmos 1354 Rocket 3.9 21:45:32 10° N 21:50:47 67° ENE 21:52:09 47° SE
SJ-11-01 4.1 21:51:18 45° SSE 21:52:44 83° ENE 21:57:25 10° N
CZ-4B DEB 3.3 21:54:21 52° NW 21:54:21 52° NW 21:56:49 10° NNW
OAO 3 Rocket 3.9 21:49:57 10° WNW 21:54:45 51° N 21:56:39 33° NE
YAOGAN 6 3.8 21:56:56 33° NNE 21:56:56 33° NNE 21:59:16 10° N
FALCON 9 R/B 2.9 21:59:47 10° WNW 22:00:46 20° NW 22:00:46 20° NW
Cosmos 2180 Rocket 4.4 21:56:56 15° S 22:02:25 88° E 22:08:48 10° N
SPOT 5 4.4 22:04:11 23° NE 22:04:11 23° NE 22:06:51 10° NNE
Cosmos 1428 Rocket 4.3 21:57:03 10° N 22:03:10 71° E 22:04:53 48° SSE
Meteor 2-10 Rocket 3.7 22:05:36 52° SSE 22:06:55 68° E 22:12:42 10° NNE
Cosmos 2322 Rocket 3.5 22:02:30 10° SW 22:07:42 39° WNW 22:12:56 10° N
Envisat 3.4 22:05:47 32° SSW 22:08:00 58° W 22:13:01 10° NNW
Cosmos 2263 Rocket 2.5 22:02:59 10° N 22:08:22 47° ENE 22:08:25 47° ENE
Cosmos 1933 3.8 22:11:30 54° WSW 22:11:52 57° W 22:15:51 10° N
Cosmos 220 Rocket 4.4 22:08:44 10° NNW 22:13:07 59° WSW 22:13:27 57° SW
Cosmos 2360 Rocket 2.0 22:15:49 40° SSW 22:17:57 88° ESE 22:23:39 10° NNE
Cosmos 1603 Rocket4 4.5 22:18:39 76° ESE 22:18:41 76° ESE 22:24:20 10° NNE
USA 234 3.1 22:22:52 61° ESE 22:24:08 82° NE 22:30:43 10° NW
Cosmos 2322 3.6 22:25:28 79° S 22:25:49 87° ESE 22:31:33 10° NNE
Cosmos 1825 4.0 22:23:54 10° NNW 22:27:11 28° W 22:27:16 28° W
NOAA 11 4.3 22:28:03 60° NE 22:28:03 60° NE 22:32:55 10° N
CZ-3 Stage 3 4.3 22:13:13 10° WNW 22:28:23 25° WSW 22:31:31 19° SSW
SEDSat Delta rocket 3.6 22:24:56 10° W 22:30:31 85° N 22:30:34 85° NNE
SL-16 R/B 4.4 22:31:13 10° WSW 22:35:38 23° WNW 22:40:04 10° N
MetOp-B 4.5 22:42:09 61° N 22:42:09 61° N 22:46:32 10° NNW
ERS-1 Rocket 3.5 22:42:09 56° WNW 22:42:09 56° WNW 22:46:38 10° NNW
Lacrosse 4 Rocket 3.1 22:42:17 10° NW 22:45:08 32° WNW 22:45:08 32° WNW
ATLAS 5 CENTAUR R/B 3.0 22:42:36 10° NNW 22:47:45 48° NNE 22:47:45 48° NNE
Skynet4D Del rocket 4.4 22:40:51 10° W 22:48:17 64° SSW 22:48:17 64° SSW
ARGOS 3.9 22:52:59 47° N 22:52:59 47° N 22:56:45 10° N
Milstar 3 3.1 22:47:17 10° W 22:53:09 51° SW 22:53:09 51° SW
SeaSat 1 3.8 22:57:02 35° N 22:57:02 35° N 22:59:54 10° NNW
Terra 4.3 23:10:04 15° NNE 23:10:04 15° NNE 23:10:55 10° N
USA 229 DEB 4.3 23:02:32 10° SW 23:09:06 51° WNW 23:15:49 10° NNE
USA 229 4.3 23:02:37 10° SW 23:09:12 52° WNW 23:15:55 10° NNE
Atlas Centaur 2 3.1 23:07:49 10° W 23:14:12 67° WSW 23:14:12 67° WSW
H-2A R/B 4.1 23:33:27 23° NNW 23:33:27 23° NNW 23:35:20 10° NNW
H-2A R/B 3.9 23:08:30 10° W 23:51:34 66° WSW 23:51:34 66° WSW
